Wind_Speed
8 9 4 7 12 19 22 23 23 22 22 20 20 22 25 29 31 33 33 35 31 34 33 34 35 38 40 43 47 47 49 47 47 43 42 41 43 43 43 44 43 43 33 44 52
7 6 8 4 8 13 18 20 20 20 19 19 18 18 19 22 27 28 33 32 32 35 34 35 35 36 36 37 40 43 46 46 44 39 43 47 50 45 54 47 43 42 39 40 50
3 3 7 8 6 10 15 17 18 18 18 18 17 16 17 18 21 23 25 29 31 33 35 36 36 37 37 38 38 38 39 37 34 36 46 50 45 52 53 46 42 39 41 42 48
5 2 5 10 11 11 12 15 17 18 17 17 17 17 17 17 22 19 20 22 25 27 28 29 32 34 34 36 36 39 39 39 38 44 51 43 42 48 42 43 45 41 43 43 46
8 6 6 8 12 16 16 16 17 18 18 18 18 19 18 18 17 19 18 20 21 24 25 26 27 28 28 30 32 35 33 36 39 44 50 44 45 45 44 45 43 41 44 42 44
11 10 9 10 11 13 17 19 21 21 21 20 20 20 21 22 13 20 19 20 21 21 23 25 26 27 28 29 30 29 31 35 38 40 42 40 41 42 40 38 42 39 39 36 37
12 13 13 11 14 14 15 17 20 22 22 23 23 23 23 23 20 23 22 22 22 23 23 23 25 28 25 26 28 29 31 31 31 33 33 35 36 35 33 34 36 36 34 34 34
9 18 15 15 14 16 18 18 18 19 21 23 24 25 25 22 25 24 24 24 25 26 26 25 24 23 26 26 27 25 26 27 27 29 30 32 29 30 31 34 36 34 34 36 36
13 9 9 21 18 18 18 21 22 20 19 20 21 22 22 24 25 25 25 26 27 27 28 27 27 28 29 28 29 27 29 28 26 26 27 34 31 28 32 37 38 34 36 37 38
17 14 11 9 17 23 20 19 19 22 24 25 23 22 23 24 22 22 23 24 25 26 26 27 28 28 29 29 29 25 23 22 24 15 30 33 35 30 33 38 38 36 36 38 39
20 20 17 14 12 9 28 22 20 20 20 22 21 27 26 28 26 26 24 25 25 24 23 25 28 26 24 26 25 25 23 29 20 16 27 35 37 35 36 37 42 41 40 41 43
15 17 19 17 14 14 12 32 26 23 25 23 22 24 21 24 24 27 28 29 30 27 28 29 28 24 26 27 28 30 33 37 33 32 34 38 43 47 41 42 44 43 40 37 37
9 12 13 15 15 15 15 14 26 34 30 26 27 26 24 24 25 24 23 24 25 27 30 32 28 29 34 34 35 36 38 38 37 38 42 42 46 39 34 32 35 35 36 35 33
7 8 8 13 16 16 15 14 14 14 22 32 35 28 26 27 26 27 26 28 28 27 27 29 26 29 26 32 36 37 34 32 35 37 40 35 42 35 28 28 35 36 38 36 36
7 8 8 8 16 16 16 14 15 13 11 15 10 18 33 38 34 31 32 30 29 29 31 26 27 29 32 33 30 31 32 34 34 35 39 38 42 38 32 32 30 30 34 39 40
6 7 7 6 8 17 16 15 12 11 11 15 14 13 14 18 31 42 38 35 34 36 36 33 34 31 31 31 32 37 36 37 39 39 45 38 39 36 29 25 24 26 31 35 44
4 5 5 5 2 8 13 12 10 12 12 14 19 15 16 15 16 20 27 40 45 42 39 39 35 33 37 37 35 35 36 36 36 33 39 25 28 28 20 29 35 36 39 49 54
4 4 4 5 1 4 5 10 11 7 17 17 18 17 15 17 17 15 15 16 18 30 42 49 46 42 31 31 37 33 27 32 36 40 42 36 43 36 35 25 26 28 39 50 54
3 2 3 4 5 4 5 5 9 11 9 5 6 7 6 9 8 6 5 6 9 13 16 20 20 29 44 33 41 42 45 43 48 52 51 45 41 44 41 49 44 40 43 50 58
3 2 2 1 1 3 5 7 4 1 1 2 2 2 3 1 3 3 3 6 9 10 8 12 13 18 21 26 28 33 33 37 38 44 40 40 31 29 35 40 43 43 49 50 55
6 5 5 4 4 4 4 3 5 5 5 6 6 8 8 8 10 9 9 13 11 14 14 17 20 15 20 24 25 29 35 37 40 44 47 46 43 30 41 34 38 41 45 50 55
4 4 7 7 7 9 9 8 10 10 11 12 13 14 14 15 16 16 18 20 17 18 23 23 26 29 24 24 27 29 31 35 40 40 40 38 40 31 42 39 41 35 50 55 57
2 1 1 3 5 9 8 10 13 14 15 17 18 19 19 22 20 21 22 25 24 24 24 28 32 33 31 30 31 33 32 30 38 39 41 42 38 37 43 43 37 44 44 50 55
6 4 3 3 4 6 8 9 10 11 13 15 18 20 21 22 22 22 25 27 26 27 27 32 33 36 38 40 37 36 34 35 33 38 40 40 40 37 38 43 46 50 53 55 57
9 8 6 7 7 8 11 13 15 15 15 15 16 17 20 21 23 23 24 25 29 29 31 34 35 37 41 40 37 35 37 40 43 39 45 43 46 46 49 48 49 55 51 52 53
12 9 9 9 11 13 13 15 17 16 18 19 18 21 22 23 23 24 27 25 29 32 33 37 39 39 37 31 31 31 28 31 34 38 43 44 45 36 34 34 42 42 43 46 45
16 14 14 12 12 15 15 17 19 20 18 20 21 21 22 22 23 24 26 28 30 29 34 36 36 32 27 22 23 22 19 22 22 24 23 26 28 30 33 37 40 41 37 38 46
Wind_Direction
57 89 96 156 176 178 175 177 181 185 190 195 201 207 211 214 217 219 222 223 220 225 225 225 225 227 230 231 232 235 236 238 241 239 246 245 251 253 247 238 247 254 250 257 262
56 108 129 160 179 183 185 187 188 193 197 199 200 206 211 215 218 219 221 223 222 226 226 228 227 227 229 229 232 234 239 241 245 246 247 245 245 245 253 254 249 256 261 260 268
57 103 147 148 168 194 194 198 198 201 204 207 210 211 215 216 217 220 223 225 226 227 228 229 231 231 231 231 233 235 238 240 240 245 244 247 250 250 257 259 258 252 251 250 256
303 171 169 171 171 181 200 208 211 211 211 212 213 216 220 223 228 227 227 230 232 235 236 235 236 237 237 238 236 236 238 240 244 242 250 250 251 254 254 260 258 258 255 256 259
281 257 201 192 191 190 193 199 207 216 219 218 215 216 220 226 229 217 228 231 232 234 236 238 239 239 241 243 242 243 243 242 242 247 254 255 257 260 263 261 261 262 262 259 260
264 258 236 211 202 203 204 205 205 206 209 213 215 217 219 221 225 221 226 227 228 229 232 234 236 237 236 238 243 245 244 244 246 249 255 256 257 259 261 267 267 264 262 259 259
254 256 251 233 215 209 211 212 213 216 217 217 218 218 218 222 219 223 220 222 224 227 227 227 229 233 236 239 239 242 245 246 248 251 251 253 252 257 259 260 258 260 261 264 262
296 229 248 247 237 223 216 214 219 220 220 222 223 224 225 223 225 224 223 223 224 224 225 228 230 230 231 234 239 241 244 241 244 248 250 253 253 255 257 254 256 257 258 258 254
296 281 249 243 247 241 227 221 219 219 222 224 226 226 226 227 226 225 225 224 225 228 229 230 231 231 234 235 241 241 244 251 250 256 257 255 255 254 252 254 256 258 260 261 263
282 283 273 252 238 240 241 239 227 223 221 225 226 227 221 225 222 222 223 223 224 226 228 228 230 232 234 236 241 244 249 249 257 251 264 254 256 251 257 258 260 262 262 264 263
276 279 276 272 269 275 227 235 238 239 233 229 222 229 228 231 227 225 224 224 224 226 227 229 230 232 235 238 237 231 206 229 219 243 259 270 258 256 254 260 268 264 263 266 266
282 278 273 267 261 261 257 230 235 229 233 236 235 236 224 227 230 229 230 232 233 232 230 232 233 235 236 236 239 236 236 239 235 233 246 252 261 264 264 264 265 269 271 267 267
300 284 277 259 258 252 254 261 242 229 233 237 238 239 240 238 235 232 233 235 233 230 232 235 238 237 240 240 242 245 248 251 254 250 251 257 264 269 269 265 262 263 265 265 266
334 325 282 250 250 246 249 251 255 255 243 240 246 246 246 243 245 241 233 235 234 236 241 241 233 226 246 244 246 252 259 255 253 253 256 257 265 266 274 277 274 268 266 266 265
335 342 331 266 243 239 238 243 251 261 277 270 260 257 241 237 243 249 247 244 243 241 239 236 240 245 250 249 245 249 250 253 250 252 257 258 264 270 270 272 275 279 283 278 269
353 339 341 340 244 236 238 243 250 256 267 257 272 281 280 267 256 244 242 244 248 247 250 250 247 234 235 246 248 252 255 257 258 260 261 265 269 273 279 280 275 276 271 270 268
349 355 345 349 9 232 234 236 240 243 232 254 279 284 279 269 268 263 262 255 246 242 247 250 245 255 254 258 257 264 265 265 265 266 271 281 286 289 279 243 241 239 244 252 266
353 353 31 42 48 64 213 210 223 217 252 269 272 268 261 268 274 275 272 271 270 271 260 250 250 250 247 256 263 252 251 255 261 256 252 233 239 237 243 242 239 252 244 254 264
330 27 56 61 85 96 92 164 214 238 254 252 257 245 246 256 255 266 268 270 278 270 267 261 259 245 254 255 253 257 261 266 265 267 270 271 261 253 245 242 245 254 263 262 265
287 296 291 37 130 124 121 151 145 143 234 253 235 304 305 288 256 263 241 253 253 261 247 270 267 262 265 265 264 268 268 262 261 268 265 268 266 255 250 256 256 252 253 262 262
261 268 270 264 235 224 226 222 213 231 249 256 266 278 287 290 287 294 283 270 280 281 283 271 280 279 272 273 272 266 269 267 269 268 269 268 260 257 254 251 263 257 256 257 263
270 273 274 262 253 251 250 246 254 258 264 269 275 276 280 279 279 276 274 275 285 282 280 284 288 287 281 281 278 274 270 266 263 266 269 269 266 259 265 262 248 253 258 262 267
296 300 311 294 285 267 267 271 269 268 269 268 270 272 275 276 275 277 277 283 287 281 284 285 288 290 290 289 283 282 277 279 259 269 265 260 263 267 267 273 268 265 263 269 273
264 273 288 294 300 305 300 292 288 287 283 280 278 279 278 277 278 279 279 285 283 283 284 285 287 291 290 288 281 270 258 258 252 245 250 258 262 262 265 269 263 268 273 272 273
261 263 259 270 276 287 294 296 294 290 287 286 286 287 287 284 284 283 281 286 288 288 288 288 291 292 292 288 280 268 262 249 246 244 252 257 264 275 272 274 272 272 275 277 278
268 263 274 282 278 278 283 289 293 293 295 293 286 287 283 283 286 286 288 289 292 293 294 295 300 295 291 287 279 275 268 266 263 263 265 265 269 273 272 267 269 275 277 278 280
275 269 268 280 283 282 284 284 288 290 291 293 296 291 291 289 286 289 291 295 298 297 299 304 303 296 300 278 270 274 284 273 272 270 262 264 264 259 258 265 275 277 291 288 281
Height
5735 5735 5735 5735 5736 5737 5739 5743 5747 5751 5756 5760 5763 5767 5772 5776 5780 5785 5790 5794 5799 5802 5806 5810 5815 5819 5822 5827 5831 5834 5835 5837 5843 5847 5852 5854 5851 5853 5855 5859 5859 5862 5869 5863 5855
5737 5736 5736 5738 5739 5740 5742 5745 5748 5751 5755 5758 5762 5766 5769 5773 5777 5782 5786 5789 5794 5797 5801 5805 5809 5813 5817 5820 5823 5826 5829 5833 5838 5842 5842 5844 5844 5847 5843 5850 5855 5858 5859 5860 5852
5738 5737 5737 5737 5739 5741 5743 5746 5749 5751 5754 5757 5761 5764 5768 5772 5775 5779 5782 5785 5789 5792 5796 5800 5803 5807 5812 5815 5818 5822 5824 5828 5831 5832 5830 5832 5839 5836 5838 5844 5849 5850 5852 5853 5852
5740 5737 5737 5737 5738 5740 5743 5745 5748 5751 5754 5756 5759 5762 5765 5769 5772 5777 5780 5783 5786 5789 5793 5795 5798 5802 5805 5809 5813 5815 5818 5821 5823 5821 5820 5828 5831 5827 5834 5835 5837 5842 5842 5845 5846
5741 5738 5736 5736 5737 5738 5741 5743 5745 5748 5751 5754 5757 5760 5763 5766 5769 5772 5776 5779 5783 5786 5789 5791 5794 5797 5799 5803 5805 5806 5811 5814 5815 5816 5814 5821 5821 5823 5824 5826 5830 5832 5832 5838 5839
5738 5738 5736 5736 5735 5737 5739 5741 5743 5745 5747 5750 5753 5756 5759 5763 5768 5769 5773 5775 5778 5781 5783 5786 5789 5792 5794 5797 5799 5802 5804 5806 5808 5809 5810 5813 5815 5815 5817 5818 5818 5823 5823 5829 5829
5735 5735 5736 5735 5734 5735 5736 5738 5740 5742 5745 5747 5750 5753 5756 5759 5764 5766 5769 5771 5774 5776 5779 5782 5784 5786 5790 5792 5794 5796 5798 5800 5803 5804 5806 5806 5809 5810 5813 5812 5813 5814 5815 5817 5818
5733 5733 5732 5733 5733 5733 5733 5734 5736 5739 5741 5744 5746 5749 5752 5756 5758 5761 5764 5767 5770 5773 5775 5777 5779 5783 5784 5787 5788 5791 5793 5795 5798 5799 5801 5801 5804 5805 5806 5806 5805 5808 5810 5811 5814
5731 5730 5729 5730 5731 5732 5731 5732 5733 5735 5737 5740 5743 5745 5748 5751 5754 5756 5760 5762 5765 5768 5770 5773 5776 5778 5780 5782 5784 5786 5788 5790 5793 5793 5794 5794 5797 5799 5797 5797 5798 5801 5801 5802 5802
5726 5726 5726 5727 5727 5728 5730 5732 5731 5732 5734 5736 5738 5742 5744 5745 5748 5751 5753 5756 5759 5762 5765 5767 5768 5771 5773 5776 5779 5782 5784 5787 5788 5792 5788 5788 5788 5791 5790 5790 5791 5792 5794 5794 5795
5721 5721 5722 5723 5724 5724 5726 5727 5730 5732 5732 5733 5736 5736 5740 5741 5744 5745 5748 5751 5753 5757 5760 5761 5763 5767 5770 5771 5773 5775 5778 5779 5785 5787 5783 5779 5780 5782 5784 5784 5782 5784 5786 5787 5787
5715 5715 5716 5717 5718 5719 5720 5721 5723 5726 5726 5729 5732 5733 5736 5737 5740 5741 5744 5746 5749 5752 5753 5755 5758 5763 5763 5764 5766 5769 5770 5771 5774 5774 5775 5773 5772 5771 5777 5778 5777 5777 5776 5777 5776
5710 5710 5711 5712 5713 5714 5716 5716 5717 5718 5720 5723 5725 5729 5732 5734 5735 5738 5741 5742 5744 5745 5746 5748 5754 5755 5755 5757 5758 5760 5761 5763 5766 5766 5765 5764 5762 5765 5767 5767 5767 5768 5768 5769 5770
5707 5706 5706 5707 5709 5710 5711 5713 5714 5716 5717 5721 5721 5724 5726 5727 5730 5732 5735 5736 5738 5742 5743 5745 5748 5746 5748 5749 5752 5753 5755 5755 5756 5756 5755 5759 5753 5757 5759 5758 5758 5759 5759 5761 5761
5705 5704 5703 5701 5704 5706 5708 5709 5710 5712 5714 5714 5716 5717 5717 5721 5723 5726 5726 5731 5733 5735 5736 5740 5741 5744 5742 5743 5744 5744 5747 5747 5746 5746 5747 5749 5747 5750 5754 5754 5754 5753 5751 5748 5749
5703 5703 5701 5700 5699 5702 5703 5705 5708 5712 5711 5711 5711 5713 5713 5714 5716 5717 5719 5723 5725 5726 5728 5732 5733 5733 5735 5737 5737 5736 5740 5739 5738 5740 5736 5742 5743 5745 5748 5749 5750 5748 5744 5738 5737
5702 5701 5700 5699 5698 5698 5700 5703 5707 5707 5708 5708 5708 5709 5708 5709 5710 5711 5713 5714 5717 5720 5723 5724 5725 5726 5727 5728 5730 5730 5732 5732 5731 5730 5729 5738 5737 5738 5743 5740 5737 5739 5734 5729 5726
5701 5700 5699 5699 5698 5698 5698 5702 5704 5705 5704 5706 5705 5706 5706 5705 5705 5706 5707 5708 5710 5711 5714 5714 5718 5720 5721 5721 5720 5721 5723 5723 5719 5720 5720 5724 5720 5727 5729 5729 5728 5727 5726 5719 5717
5701 5700 5699 5699 5698 5698 5699 5700 5702 5703 5703 5702 5702 5702 5702 5701 5702 5702 5702 5703 5704 5705 5707 5707 5711 5711 5707 5711 5711 5712 5712 5716 5709 5709 5709 5715 5719 5721 5719 5715 5718 5715 5713 5711 5704
5699 5699 5699 5698 5699 5698 5699 5699 5701 5701 5701 5701 5701 5701 5700 5700 5700 5700 5700 5700 5700 5700 5702 5703 5704 5704 5704 5704 5706 5704 5706 5703 5702 5699 5701 5703 5706 5707 5705 5705 5703 5702 5699 5699 5693
5697 5698 5698 5698 5698 5698 5698 5698 5698 5698 5699 5700 5699 5699 5698 5698 5697 5698 5698 5696 5697 5696 5696 5696 5696 5701 5699 5698 5697 5698 5695 5696 5695 5692 5689 5691 5696 5701 5689 5694 5694 5691 5689 5685 5683
5694 5695 5695 5696 5697 5695 5695 5695 5695 5695 5696 5696 5695 5695 5695 5695 5695 5695 5693 5691 5693 5692 5690 5690 5689 5687 5692 5691 5689 5687 5687 5685 5682 5684 5682 5680 5678 5688 5678 5681 5680 5680 5677 5675 5673
5692 5691 5691 5693 5693 5692 5692 5692 5691 5691 5691 5691 5691 5691 5691 5690 5691 5689 5687 5685 5685 5685 5684 5682 5679 5678 5679 5681 5676 5676 5674 5674 5672 5671 5671 5670 5674 5674 5668 5668 5668 5665 5665 5666 5661
5690 5689 5688 5689 5689 5689 5689 5689 5688 5687 5686 5686 5686 5685 5684 5684 5683 5683 5681 5679 5679 5677 5677 5673 5673 5669 5668 5667 5666 5666 5666 5664 5661 5661 5658 5659 5660 5664 5661 5653 5655 5653 5651 5648 5646
5686 5686 5685 5685 5685 5685 5685 5684 5684 5683 5682 5681 5680 5680 5679 5678 5677 5675 5674 5673 5670 5669 5667 5665 5663 5660 5656 5651 5650 5652 5651 5653 5650 5651 5648 5653 5648 5653 5648 5647 5643 5635 5640 5637 5632
5682 5682 5681 5681 5681 5680 5679 5680 5679 5678 5677 5675 5675 5673 5672 5671 5671 5669 5666 5666 5664 5660 5657 5654 5652 5646 5644 5641 5638 5637 5641 5640 5641 5641 5638 5640 5638 5639 5634 5631 5628 5629 5624 5623 5622
5677 5677 5677 5676 5676 5675 5675 5674 5673 5672 5672 5669 5668 5666 5664 5664 5663 5661 5660 5657 5655 5652 5647 5643 5638 5634 5635 5632 5630 5632 5632 5631 5631 5630 5630 5630 5630 5627 5624 5621 5620 5617 5617 5614 5607